Location: Unspecified
(0.0000°N, 0.0000°E)
Time: 21:54:30
(UTC+00:00)

SR - All Passes

Search period start: 29 June 2016 00:00
Search period end: 09 July 2016 00:00
Orbit: 583 x 875 km, 66.7° (Epoch: 28 June)

Date Brightness Start Highest point End Pass type
(mag) Time Alt. Az. Time Alt. Az. Time Alt. Az.
29 Jun - 04:19:02 10° SE 04:22:03 14° ESE 04:24:59 10° E visible
29 Jun - 05:58:38 10° SW 06:04:01 42° WNW 06:09:06 10° N daylight
29 Jun - 16:43:58 10° NNE 16:47:34 26° ENE 16:51:23 10° SE daylight
29 Jun - 18:27:11 10° W 18:29:26 14° WSW 18:31:44 10° SW visible
30 Jun - 05:09:02 10° SSW 05:14:50 80° ESE 05:20:15 10° NNE visible
30 Jun - 17:36:02 10° NW 17:40:06 37° WSW 17:44:27 10° S daylight
01 Jul - 04:20:26 10° S 04:25:33 33° ESE 04:30:25 10° NE visible
01 Jul - 06:03:37 10° WSW 06:07:22 18° WNW 06:10:59 10° NNW daylight
01 Jul - 16:46:31 10° NNW 16:50:52 72° ENE 16:55:33 10° SSE daylight
02 Jul - 03:33:29 10° SE 03:36:13 14° ESE 03:38:52 10° E visible
02 Jul - 05:12:46 10° SW 05:18:13 44° WNW 05:23:19 10° N visible
02 Jul - 15:58:11 10° NNE 16:01:44 24° ENE 16:05:28 10° SE daylight
02 Jul - 17:41:05 10° WNW 17:43:34 15° WSW 17:46:08 10° SW daylight
03 Jul - 04:23:15 10° SSW 04:29:01 76° ESE 04:34:24 10° NNE visible
03 Jul - 16:50:07 10° NW 16:54:14 40° WSW 16:58:41 10° S daylight
04 Jul - 03:34:42 10° S 03:39:44 31° ESE 03:44:29 10° NE visible
04 Jul - 05:17:40 10° WSW 05:21:32 19° WNW 05:25:16 10° NNW visible
04 Jul - 16:00:40 10° NNW 16:05:01 68° ENE 16:09:43 10° SSE daylight
05 Jul - 02:47:57 10° SE 02:50:22 13° ESE 02:52:43 10° E visible
05 Jul - 04:26:55 10° SW 04:32:23 46° WNW 04:37:30 10° N visible
05 Jul - 15:12:24 10° NNE 15:15:53 23° ENE 15:19:32 10° ESE daylight
05 Jul - 16:55:01 10° WNW 16:57:43 16° WSW 17:00:31 10° SSW daylight
06 Jul - 03:37:27 10° SSW 03:43:12 72° ESE 03:48:32 10° NNE visible
06 Jul - 16:04:11 10° NW 16:08:23 43° WSW 16:12:54 10° S daylight
07 Jul - 02:48:58 10° S 02:53:54 29° ESE 02:58:33 10° NE visible
07 Jul - 04:31:42 10° WSW 04:35:43 20° WNW 04:39:33 10° NNW visible
07 Jul - 15:14:49 10° N 15:19:10 63° ENE 15:23:52 10° SSE daylight
08 Jul - 02:02:31 10° SE 02:04:32 12° ESE 02:06:31 10° E visible
08 Jul - 03:41:04 10° SW 03:46:34 49° WNW 03:51:41 10° N visible
08 Jul - 14:26:38 10° NNE 14:30:02 22° ENE 14:33:37 10° ESE daylight
08 Jul - 16:08:56 10° WNW 16:11:51 17° WSW 16:14:53 10° SSW daylight
